When you browse on this site, cookies collect data to enhance your experience and personalize the content and advertising you see.
Visit our Privacy Policy to learn more. By continuing to use the site, you agree to this use of cookies and data.
  • Em Portugal
  • Lista de países
  • Para 7 dias
  • Temperatura da água
  • Mapas de satélite
  • Mapa do tempo
  • Widgets de tempo
  • user-avatar
    Iniciar Sessão

    Previsão horária em Koziatyn

    Hoje, 16 Janeiro, Quarta-feira

    Tempo Temperatura Precipitação Vento Pressão Humidade
    00:00 -10°C° 0 mm 5 m/s 725 mmHg 91%
    01:00 -10°C° 0 mm 5 m/s 725 mmHg 92%
    02:00 -8°C° 0 mm 4 m/s 725 mmHg 92%
    03:00 -8°C° 0 mm 4 m/s 724 mmHg 92%
    04:00 -8°C° 0 mm 4 m/s 724 mmHg 93%
    05:00 -8°C° 0 mm 4 m/s 723 mmHg 94%
    06:00 -7°C° 0.5 mm 3 m/s 723 mmHg 95%
    07:00 -8°C° 0.5 mm 3 m/s 723 mmHg 95%
    08:00 -7°C° 0 mm 2 m/s 722 mmHg 96%
    09:00 -7°C° 0.2 mm 2 m/s 723 mmHg 96%
    10:00 -6°C° 0.2 mm 2 m/s 724 mmHg 96%
    11:00 -6°C° 0.2 mm 2 m/s 724 mmHg 95%
    12:00 -6°C° 0 mm 3 m/s 725 mmHg 94%
    13:00 -6°C° 0 mm 3 m/s 726 mmHg 93%
    14:00 -5°C° 0 mm 4 m/s 727 mmHg 92%
    15:00 -7°C° 0 mm 4 m/s 728 mmHg 92%
    16:00 -6°C° 0 mm 3 m/s 729 mmHg 92%
    17:00 -7°C° 0 mm 3 m/s 730 mmHg 92%
    18:00 -8°C° 0 mm 3 m/s 730 mmHg 92%
    19:00 -9°C° 0 mm 3 m/s 731 mmHg 93%
    20:00 -10°C° 0 mm 3 m/s 731 mmHg 93%
    21:00 -10°C° 0 mm 2 m/s 732 mmHg 93%
    22:00 -10°C° 0 mm 2 m/s 732 mmHg 92%
    23:00 -10°C° 0 mm 2 m/s 732 mmHg 92%

    Amanhã, 17 Janeiro, Quinta-feira

    Tempo Temperatura Precipitação Vento Pressão Humidade
    00:00 -10°C° 0 mm 2 m/s 732 mmHg 91%
    01:00 -12°C° 0 mm 3 m/s 732 mmHg 91%
    02:00 -12°C° 0 mm 3 m/s 732 mmHg 90%
    03:00 -10°C° 0 mm 4 m/s 732 mmHg 91%
    04:00 -9°C° 0 mm 4 m/s 732 mmHg 92%
    05:00 -7°C° 0 mm 5 m/s 732 mmHg 92%
    06:00 -6°C° 0 mm 5 m/s 732 mmHg 93%
    07:00 -6°C° 0 mm 5 m/s 732 mmHg 94%
    08:00 -5°C° 0 mm 5 m/s 732 mmHg 95%
    09:00 -5°C° 0 mm 6 m/s 732 mmHg 93%
    10:00 -5°C° 0 mm 6 m/s 732 mmHg 92%
    11:00 -4°C° 0 mm 6 m/s 732 mmHg 90%
    12:00 -4°C° 0 mm 6 m/s 731 mmHg 89%
    13:00 -4°C° 0 mm 6 m/s 731 mmHg 89%
    14:00 -3°C° 0 mm 6 m/s 731 mmHg 88%
    15:00 -4°C° 0 mm 6 m/s 730 mmHg 89%
    16:00 -4°C° 0 mm 6 m/s 730 mmHg 89%
    17:00 -5°C° 0 mm 6 m/s 730 mmHg 90%
    18:00 -5°C° 0 mm 5 m/s 730 mmHg 90%
    19:00 -5°C° 0 mm 5 m/s 730 mmHg 90%
    20:00 -6°C° 0 mm 5 m/s 730 mmHg 90%
    21:00 -5°C° 0 mm 4 m/s 730 mmHg 90%
    22:00 -5°C° 0 mm 4 m/s 730 mmHg 90%
    23:00 -5°C° 0 mm 4 m/s 730 mmHg 89%

    Depois de amanhã, 18 Janeiro, Sexta-feira

    Tempo Temperatura Precipitação Vento Pressão Humidade
    00:00 -5°C° 0 mm 4 m/s 731 mmHg 89%
    01:00 -5°C° 0 mm 4 m/s 731 mmHg 89%
    02:00 -5°C° 0 mm 3 m/s 731 mmHg 88%
    03:00 -5°C° 0 mm 4 m/s 730 mmHg 88%
    04:00 -5°C° 0 mm 4 m/s 730 mmHg 87%
    05:00 -5°C° 0 mm 4 m/s 730 mmHg 87%
    06:00 -3°C° 0.1 mm 4 m/s 730 mmHg 87%
    07:00 -2°C° 0.1 mm 4 m/s 730 mmHg 88%
    08:00 -1°C° 0.1 mm 4 m/s 730 mmHg 88%
    09:00 -1°C° 0 mm 4 m/s 730 mmHg 91%
    10:00 -1°C° 0 mm 4 m/s 731 mmHg 94%
    11:00 -1°C° 0 mm 4 m/s 731 mmHg 97%
    12:00 -1°C° 0.1 mm 4 m/s 731 mmHg 95%
    13:00 -1°C° 0.1 mm 5 m/s 731 mmHg 92%
    14:00 -1°C° 0.1 mm 5 m/s 732 mmHg 89%
    15:00 -2°C° 0 mm 5 m/s 732 mmHg 87%
    16:00 -4°C° 0 mm 5 m/s 733 mmHg 85%
    17:00 -4°C° 0 mm 6 m/s 734 mmHg 83%
    18:00 -5°C° 0 mm 6 m/s 735 mmHg 83%
    19:00 -6°C° 0 mm 6 m/s 735 mmHg 84%
    20:00 -8°C° 0 mm 6 m/s 736 mmHg 84%
    21:00 -8°C° 0 mm 5 m/s 737 mmHg 87%
    22:00 -8°C° 0 mm 4 m/s 737 mmHg 89%
    23:00 -9°C° 0 mm 4 m/s 738 mmHg 91%

    19 Janeiro, Sábado

    Tempo Temperatura Precipitação Vento Pressão Humidade
    00:00 -9°C° 0 mm 4 m/s 739 mmHg 92%
    01:00 -10°C° 0 mm 4 m/s 739 mmHg 92%
    02:00 -11°C° 0 mm 4 m/s 739 mmHg 93%
    03:00 -10°C° 0 mm 3 m/s 740 mmHg 92%
    04:00 -10°C° 0 mm 3 m/s 740 mmHg 91%
    05:00 -12°C° 0 mm 3 m/s 740 mmHg 91%
    06:00 -12°C° 0 mm 3 m/s 740 mmHg 90%
    07:00 -12°C° 0 mm 3 m/s 740 mmHg 89%
    08:00 -12°C° 0 mm 3 m/s 741 mmHg 89%
    09:00 -10°C° 0 mm 3 m/s 741 mmHg 88%
    10:00 -9°C° 0 mm 3 m/s 741 mmHg 88%
    11:00 -8°C° 0 mm 3 m/s 741 mmHg 88%
    12:00 -8°C° 0 mm 3 m/s 741 mmHg 88%
    13:00 -7°C° 0 mm 3 m/s 741 mmHg 89%
    14:00 -7°C° 0 mm 3 m/s 740 mmHg 89%
    15:00 -8°C° 0 mm 3 m/s 740 mmHg 90%
    16:00 -9°C° 0 mm 3 m/s 740 mmHg 90%
    17:00 -9°C° 0 mm 2 m/s 740 mmHg 90%
    18:00 -9°C° 0 mm 2 m/s 740 mmHg 90%
    19:00 -9°C° 0 mm 2 m/s 740 mmHg 90%
    20:00 -10°C° 0 mm 2 m/s 740 mmHg 90%
    21:00 -10°C° 0 mm 2 m/s 740 mmHg 89%
    22:00 -12°C° 0 mm 2 m/s 740 mmHg 89%
    23:00 -13°C° 0 mm 3 m/s 740 mmHg 89%

    20 Janeiro, Domingo

    Tempo Temperatura Precipitação Vento Pressão Humidade
    00:00 -12°C° 0 mm 2 m/s 739 mmHg 90%
    01:00 -12°C° 0 mm 2 m/s 739 mmHg 91%
    02:00 -13°C° 0 mm 2 m/s 739 mmHg 92%
    03:00 -12°C° 0 mm 2 m/s 738 mmHg 93%
    04:00 -12°C° 0 mm 2 m/s 738 mmHg 94%
    05:00 -12°C° 0 mm 2 m/s 737 mmHg 95%
    06:00 -12°C° 0 mm 2 m/s 737 mmHg 95%
    07:00 -10°C° 0 mm 2 m/s 737 mmHg 95%
    08:00 -10°C° 0 mm 2 m/s 737 mmHg 96%
    09:00 -8°C° 0.1 mm 2 m/s 737 mmHg 96%
    10:00 -6°C° 0.1 mm 1 m/s 737 mmHg 96%
    11:00 -4°C° 0.1 mm 1 m/s 737 mmHg 96%
    12:00 -4°C° 0.2 mm 1 m/s 736 mmHg 95%
    13:00 -3°C° 0.2 mm 1 m/s 736 mmHg 95%
    14:00 -4°C° 0.2 mm 0 m/s 735 mmHg 95%
    15:00 -4°C° 0.2 mm 0 m/s 735 mmHg 96%
    16:00 -3°C° 0.2 mm 1 m/s 735 mmHg 96%
    17:00 -3°C° 0.2 mm 1 m/s 734 mmHg 97%
    18:00 -4°C° 0.2 mm 1 m/s 734 mmHg 97%
    19:00 -4°C° 0.2 mm 1 m/s 734 mmHg 97%
    20:00 -6°C° 0.2 mm 2 m/s 734 mmHg 97%
    21:00 -6°C° 0.1 mm 2 m/s 734 mmHg 97%
    22:00 -7°C° 0.1 mm 2 m/s 734 mmHg 97%
    23:00 -8°C° 0.1 mm 2 m/s 734 mmHg 97%

    21 Janeiro, Segunda-feira

    Tempo Temperatura Precipitação Vento Pressão Humidade
    00:00 -8°C° 0 mm 2 m/s 734 mmHg 96%
    01:00 -9°C° 0 mm 2 m/s 734 mmHg 96%
    02:00 -9°C° 0 mm 2 m/s 734 mmHg 96%
    03:00 -10°C° 0 mm 2 m/s 734 mmHg 95%
    04:00 -12°C° 0 mm 2 m/s 734 mmHg 94%
    05:00 -13°C° 0 mm 2 m/s 734 mmHg 93%
    06:00 -14°C° 0 mm 2 m/s 734 mmHg 93%
    07:00 -15°C° 0 mm 3 m/s 734 mmHg 93%
    08:00 -16°C° 0 mm 3 m/s 734 mmHg 93%
    09:00 -14°C° 0 mm 3 m/s 735 mmHg 93%
    10:00 -14°C° 0 mm 4 m/s 735 mmHg 93%
    11:00 -11°C° 0 mm 4 m/s 735 mmHg 92%
    12:00 -10°C° 0 mm 4 m/s 735 mmHg 91%
    13:00 -10°C° 0 mm 5 m/s 736 mmHg 90%
    14:00 -8°C° 0 mm 5 m/s 736 mmHg 89%
    15:00 -8°C° 0 mm 5 m/s 736 mmHg 87%
    16:00 -8°C° 0 mm 5 m/s 737 mmHg 86%
    17:00 -10°C° 0 mm 5 m/s 737 mmHg 85%
    18:00 -10°C° 0 mm 5 m/s 737 mmHg 86%
    19:00 -10°C° 0 mm 5 m/s 738 mmHg 87%
    20:00 -10°C° 0 mm 5 m/s 738 mmHg 88%
    21:00 -10°C° 0 mm 4 m/s 739 mmHg 89%
    22:00 -12°C° 0 mm 4 m/s 739 mmHg 90%
    23:00 -14°C° 0 mm 4 m/s 739 mmHg 91%
    Mostrar mais